Dewpoint
19 19 19 20 19 18 17 18 18 18 17 17 17 18 19 20 20 21 23 22 21 20 20 21 21 22 23 27 29 30 31 31 31 31 31 31 31 31 31 31 31 31 31 31 32 32 32 32 33 33 33 33 34 34 34 34 34 35 35 36 36 37 37 38 38 38 39 39 39 39 39 39 39 40 40 40 41 41 41 41 41 41 42 42 42 42
19 19 19 19 19 18 17 18 18 18 17 17 17 18 19 19 19 20 20 21 21 21 20 21 21 21 21 25 28 30 30 30 30 30 30 30 30 30 30 30 30 31 31 31 32 32 32 32 33 33 33 33 34 34 34 34 34 35 35 36 36 37 37 38 38 38 38 38 39 39 39 39 40 40 40 40 40 40 40 40 40 40 40 40 41 41
18 18 18 19 19 18 17 18 18 18 19 18 18 19 19 19 20 20 20 21 21 22 22 22 22 22 21 24 26 29 29 29 29 29 29 29 29 29 30 30 30 31 31 31 31 32 32 32 33 33 33 33 34 34 34 34 35 35 35 36 36 36 37 37 37 38 38 38 38 38 39 39 39 39 40 40 40 40 39 39 39 39 40 40 40 41
18 17 18 19 19 18 18 18 19 19 20 20 20 20 20 20 20 21 22 22 23 23 23 22 21 20 20 21 24 26 28 28 28 29 29 29 29 29 29 30 30 30 31 31 31 32 32 32 33 33 33 33 34 34 34 34 34 35 35 35 35 36 36 36 37 37 37 37 38 38 38 38 38 38 39 39 39 39 39 39 40 40 40 40 40 40
18 19 19 19 19 19 19 19 20 20 20 20 20 20 20 21 23 24 25 25 24 23 22 21 20 19 19 19 22 25 27 27 27 28 28 29 29 29 29 30 30 30 31 31 31 32 32 32 33 33 33 33 34 34 34 34 34 34 34 35 35 35 35 36 36 36 36 36 37 37 37 37 38 38 38 38 38 39 39 39 39 39 39 40 40 40
20 20 20 20 19 19 20 20 20 20 20 21 21 22 22 24 25 25 25 25 24 23 21 20 19 17 17 17 20 23 25 26 27 27 28 28 29 29 29 30 30 30 31 31 31 32 32 32 32 33 33 33 33 33 34 34 34 34 34 34 34 35 35 35 35 35 35 35 36 36 36 36 37 37 37 37 38 38 38 38 38 38 38 39 39 39
20 20 21 20 20 20 20 20 20 21 21 22 23 24 25 26 26 25 25 24 22 21 20 19 18 16 15 16 18 21 22 24 25 26 27 28 28 29 29 29 30 30 31 31 31 32 32 32 32 32 32 33 33 33 33 33 33 33 33 34 34 34 34 34 34 34 34 34 35 35 35 35 35 36 36 36 36 36 37 37 37 38 38 38 38 38
20 20 20 20 20 20 20 21 22 23 24 25 25 26 26 25 25 24 24 23 21 19 18 17 17 16 14 14 16 17 18 19 20 22 24 25 26 28 29 29 30 30 31 31 31 31 31 32 32 32 32 32 32 32 32 32 32 32 32 32 33 33 33 33 33 34 34 34 34 34 34 34 34 34 35 35 35 35 36 36 36 37 37 38 38 38
20 19 20 20 20 21 21 23 25 26 27 27 27 26 25 23 21 20 20 20 20 18 16 16 15 14 14 14 15 16 17 19 19 19 20 21 23 25 27 29 29 30 30 30 30 31 31 31 31 31 31 31 32 32 32 32 32 31 31 31 31 32 32 32 33 33 33 33 33 34 34 34 34 34 34 34 34 34 35 35 35 36 36 37 37 38
21 20 20 21 22 24 25 26 27 28 28 27 26 25 22 20 18 16 16 16 17 17 16 16 15 15 15 15 15 16 19 20 22 24 25 24 25 26 27 27 28 28 29 29 30 30 30 30 30 30 31 31 31 31 31 31 31 30 30 30 31 31 31 31 32 32 32 33 33 33 33 34 34 34 34 34 34 34 34 34 35 35 36 36 37 38
21 22 22 23 25 28 29 29 28 27 25 24 22 20 18 17 16 16 15 15 15 16 16 16 16 16 16 16 16 17 19 20 21 24 26 26 27 27 27 27 27 27 28 29 29 29 29 29 29 30 30 30 30 30 30 30 30 30 30 30 30 30 30 31 31 32 32 32 33 33 34 34 34 34 34 34 34 35 35 35 35 35 36 36 37 38
22 23 24 25 27 28 29 27 25 23 21 19 17 16 16 16 17 17 16 15 15 15 15 16 16 17 17 17 17 18 19 20 20 20 22 23 24 24 24 24 24 25 26 26 27 28 28 29 29 29 29 29 29 29 29 29 29 29 29 29 29 29 30 30 31 31 32 33 33 34 34 34 34 35 35 35 35 35 36 36 36 36 37 37 38 38
23 25 26 27 27 26 24 22 20 18 17 16 16 15 15 16 16 17 17 16 16 16 16 16 16 18 19 19 20 20 20 20 20 20 19 20 20 20 20 20 20 20 21 22 22 24 26 27 28 28 29 28 28 29 29 28 28 29 29 29 29 29 30 30 31 32 32 33 33 34 34 34 34 35 35 35 35 36 36 36 36 36 37 37 38 38
25 26 27 26 25 22 20 18 17 16 16 16 16 15 15 16 16 17 17 16 16 16 16 17 17 18 19 20 21 21 21 20 19 19 18 19 19 20 20 19 19 19 20 20 20 21 25 25 25 25 27 27 27 27 27 27 28 28 29 29 29 29 30 31 31 32 33 33 34 34 34 34 34 34 35 35 35 35 35 35 35 36 36 36 37 37
26 26 25 23 21 20 19 18 17 16 16 16 16 16 16 17 17 16 16 16 16 17 18 18 19 20 20 21 21 21 20 19 19 18 18 18 19 20 21 20 20 20 20 20 20 21 24 24 22 22 22 23 24 25 25 26 27 29 29 29 29 30 30 31 31 32 32 33 33 34 34 34 34 34 34 34 34 35 35 35 35 35 35 36 36 36
26 24 22 21 20 19 19 18 17 16 16 16 16 16 17 16 16 17 17 18 18 19 19 20 20 21 21 21 21 20 19 19 18 18 17 17 19 20 21 20 20 20 20 20 20 20 22 21 20 20 20 22 25 26 27 27 28 29 29 29 30 30 30 31 31 31 32 32 33 33 33 33 34 34 34 34 34 34 34 35 35 35 35 35 35 36
24 23 22 21 20 20 19 18 17 17 17 16 16 16 16 17 18 19 20 20 20 20 20 21 21 21 20 20 19 19 19 19 19 19 19 19 20 20 21 21 20 20 20 20 20 20 20 20 20 20 20 23 25 27 27 28 29 29 29 29 29 30 30 30 30 31 31 32 32 32 33 33 33 34 34 34 34 34 34 34 34 34 34 35 35 35
24 23 22 22 21 20 19 18 17 17 17 16 16 17 18 20 21 21 21 21 21 22 22 23 22 21 20 18 18 18 19 20 20 20 20 20 20 20 22 21 20 20 19 19 19 19 19 20 20 21 22 25 27 28 28 28 29 29 29 29 29 29 29 30 30 30 31 31 32 32 33 33 33 33 33 34 34 34 34 34 34 34 34 34 34 34
24 23 23 22 21 20 19 17 16 16 16 16 17 20 21 22 23 22 22 22 23 24 25 24 22 21 19 17 17 18 19 20 20 21 21 20 20 20 20 20 20 19 19 19 19 19 19 20 23 25 26 27 27 28 28 28 28 29 29 29 29 29 29 30 30 30 31 31 32 32 33 33 33 34 34 34 34 34 34 34 34 34 35 35 35 35
25 24 23 22 20 19 18 17 17 17 17 19 21 22 23 23 23 22 22 23 24 25 25 23 21 20 18 18 18 19 20 21 21 22 21 21 20 20 20 20 19 19 18 18 18 19 20 20 22 24 25 26 27 27 27 28 28 29 29 29 29 29 29 30 30 30 31 31 32 32 32 33 33 33 34 34 34 34 34 34 35 35 35 35 35 35
24 23 21 20 19 18 18 17 18 19 21 24 25 24 24 23 23 23 24 25 25 25 23 21 20 20 19 19 20 20 21 21 22 22 22 21 20 20 19 19 19 18 18 18 19 20 20 20 20 21 23 25 26 27 27 28 28 29 29 29 29 29 29 30 30 30 31 31 31 32 32 32 33 33 33 34 34 34 34 35 35 35 35 35 36 36
21 20 19 19 19 19 19 19 21 23 25 26 26 25 24 25 25 26 26 26 24 23 22 21 21 21 21 21 21 21 22 22 22 22 22 21 20 19 19 19 19 19 18 19 19 19 19 19 19 20 23 25 26 27 27 28 28 29 29 29 29 29 29 30 30 30 31 31 31 31 32 32 32 33 33 34 34 34 34 35 35 35 35 36 36 36
20 20 20 20 20 20 21 22 24 25 26 27 27 27 27 28 28 27 26 25 23 22 22 22 22 23 23 22 22 22 22 22 22 22 21 20 18 17 18 19 19 19 18 18 18 18 18 18 18 19 22 25 26 27 27 28 28 28 29 29 29 29 29 29 30 30 30 31 31 31 32 32 33 33 34 34 34 34 35 35 35 35 36 36 36 36
20 20 20 21 23 25 25 25 25 26 28 29 30 30 31 30 29 27 25 25 24 24 24 23 23 23 23 22 21 21 21 21 20 20 19 19 18 18 18 19 18 18 17 17 17 17 18 18 18 19 20 24 25 26 27 27 28 28 29 29 29 29 29 29 29 30 30 31 31 31 32 32 33 33 33 34 34 34 34 35 35 35 36 36 36 36
22 22 23 24 26 29 28 28 29 31 32 32 32 31 29 28 27 25 25 25 24 24 23 23 22 21 20 20 20 19 19 20 20 19 19 18 18 18 18 18 17 17 17 17 18 18 17 17 18 18 19 22 24 26 27 27 28 28 28 28 29 29 29 29 29 30 30 30 31 31 32 32 32 33 33 33 33 34 34 34 34 35 35 36 36 36
25 25 25 27 29 31 32 33 34 34 34 31 29 27 25 25 25 25 25 24 23 22 21 20 20 19 19 19 18 18 18 19 19 19 19 18 18 18 18 18 17 17 17 18 19 19 18 17 17 18 19 20 23 25 26 27 27 27 28 28 28 29 29 29 29 30 30 30 31 31 31 31 32 32 32 32 33 33 33 34 34 34 34 35 35 36
27 28 29 30 31 32 33 33 32 31 30 29 27 26 25 25 24 24 22 22 21 21 20 20 19 18 18 18 18 18 18 19 19 19 19 19 19 18 19 18 18 18 17 18 19 20 20 19 19 19 19 19 20 23 25 26 26 27 27 28 28 29 29 29 29 29 30 30 30 31 31 31 31 32 32 32 32 33 33 33 33 34 34 34 34 35
28 29 30 31 31 31 30 29 28 28 27 27 27 27 26 25 23 22 21 21 21 20 20 20 19 18 18 17 17 18 18 18 19 19 19 19 19 19 19 18 18 18 18 18 19 20 21 20 20 19 19 19 19 20 23 25 26 26 27 27 28 28 28 29 29 29 29 30 30 30 31 31 31 32 32 32 32 33 33 33 33 33 33 33 34 34
29 30 30 29 29 27 26 25 25 26 26 26 27 26 25 24 23 22 22 21 21 20 20 20 19 19 18 18 18 18 17 18 18 19 19 19 19 19 19 18 18 19 19 19 19 19 19 19 19 19 18 19 19 20 21 24 25 25 26 27 27 27 28 28 29 29 29 29 30 30 30 31 31 31 32 32 32 33 33 33 33 33 33 33 33 34
27 27 26 25 24 24 23 23 23 24 25 25 25 25 25 23 22 22 21 21 21 20 20 20 19 19 19 18 18 17 16 17 18 19 20 20 20 19 19 19 19 19 19 19 18 18 17 17 18 18 18 20 20 20 20 21 22 23 23 25 25 26 27 28 28 29 29 29 29 30 30 31 31 31 31 32 32 32 33 33 33 32 32 32 33 33
24 22 21 20 20 20 20 21 21 22 23 24 24 24 23 22 21 21 21 21 21 20 20 20 20 20 19 19 17 16 15 16 18 20 20 20 20 20 20 20 20 20 20 20 19 17 16 16 17 18 19 20 20 20 21 21 21 21 21 22 23 25 26 27 27 28 29 29 29 30 30 30 31 31 31 31 32 32 32 33 33 32 32 32 32 32
21 20 20 19 19 19 20 20 20 20 21 21 21 21 21 21 21 21 20 21 21 21 21 20 20 20 20 19 18 17 16 17 19 20 20 21 21 21 21 20 20 20 20 20 20 19 17 16 17 18 19 19 20 20 20 21 21 21 21 22 22 23 25 26 27 27 28 28 29 29 29 30 30 30 31 31 32 32 32 32 33 33 32 32 32 31
20 20 19 19 19 19 19 19 19 19 20 20 20 20 20 20 21 21 20 20 21 21 21 21 20 20 20 20 19 18 18 18 20 21 22 21 21 21 21 21 20 20 20 20 20 20 19 18 18 18 19 19 19 19 20 20 21 22 22 22 21 22 24 25 26 26 26 27 28 29 29 29 30 30 30 31 31 32 32 32 33 33 33 33 32 32
20 19 19 19 19 19 19 19 19 19 19 19 19 19 19 19 20 20 20 20 20 21 21 21 20 20 20 20 19 19 18 18 20 21 22 22 22 21 21 21 20 20 20 20 20 20 19 19 18 18 18 19 19 19 20 20 21 21 22 21 21 22 23 24 24 25 25 25 26 26 27 28 29 29 30 30 31 31 32 32 33 33 33 33 33 33
19 19 19 18 18 18 18 18 18 18 18 18 18 18 19 19 19 20 20 20 21 21 21 21 21 21 20 20 20 19 18 18 20 22 23 23 22 22 22 21 20 20 20 20 20 20 19 19 19 19 18 18 19 19 19 20 20 21 21 22 22 22 22 23 24 24 24 25 25 25 25 26 27 28 29 29 30 31 31 32 32 33 33 33 34 34
18 18 18 18 18 18 17 18 18 17 17 17 17 18 18 18 19 19 20 20 21 21 21 22 22 22 22 22 21 21 20 20 21 23 24 24 23 23 22 21 21 21 21 21 20 20 19 19 19 20 19 19 18 18 19 20 20 20 21 21 22 22 22 23 23 24 24 24 24 25 25 25 26 26 27 29 30 31 31 32 32 32 33 33 34 34
18 18 18 18 17 17 17 17 17 17 16 16 16 17 17 17 18 19 19 21 22 22 22 23 23 23 24 24 23 23 23 22 23 24 25 25 25 24 23 23 23 23 22 22 21 21 20 20 20 19 19 18 18 18 18 19 20 20 20 21 21 22 22 23 24 24 24 24 24 25 25 25 26 27 27 29 30 30 31 31 32 32 33 33 34 34
17 17 17 17 17 17 17 17 17 17 17 16 17 17 17 18 18 19 19 20 21 22 22 22 22 23 25 25 25 25 25 25 25 25 26 26 25 25 25 24 24 24 23 23 23 22 21 20 20 19 18 18 18 19 20 20 20 20 20 21 22 22 22 23 23 24 24 24 25 25 26 26 26 26 27 28 28 28 29 29 30 31 32 33 33 34
17 17 17 17 17 17 17 16 17 17 17 17 17 18 18 19 19 20 20 20 20 21 22 22 22 22 24 25 26 26 26 26 26 27 27 27 26 25 25 24 24 24 24 24 24 23 23 21 20 20 19 19 19 20 20 20 20 20 21 21 22 22 22 23 23 24 24 24 25 25 25 25 26 26 26 27 27 27 27 28 29 30 31 31 32 33
18 18 18 18 18 17 17 17 17 17 17 18 18 19 19 19 19 19 19 20 20 20 21 22 22 22 23 24 25 25 26 27 27 27 27 27 27 26 25 24 24 24 24 24 24 24 24 23 22 21 21 20 20 20 20 20 21 21 22 21 21 21 22 23 23 23 24 24 24 25 25 25 25 26 26 27 27 27 28 28 29 29 31 31 31 31
18 18 17 17 17 17 17 17 17 17 18 18 18 18 19 19 19 18 18 19 20 20 21 21 22 22 23 23 23 23 24 25 26 26 27 27 27 27 26 25 25 24 24 24 24 24 24 24 23 22 22 22 22 22 22 21 22 23 23 22 21 21 22 23 24 24 24 24 24 25 25 25 26 26 26 27 28 28 29 30 30 30 31 32 32 31
19 18 17 16 16 16 16 17 18 19 19 18 18 18 18 18 18 18 19 19 20 20 20 21 21 21 21 21 22 22 23 24 25 26 27 27 27 27 26 25 25 25 25 24 24 24 24 24 24 23 23 23 23 22 22 22 22 23 23 22 22 22 23 23 23 23 23 24 24 25 26 25 25 26 26 27 28 29 31 32 32 32 32 32 32 32
18 17 17 17 16 16 17 18 19 19 19 18 18 18 18 18 19 19 20 20 20 20 20 21 21 21 21 21 21 21 22 24 25 25 25 26 26 26 26 25 25 25 25 24 24 24 24 25 24 24 24 24 24 23 22 22 22 22 22 22 22 22 21 21 21 22 23 24 24 25 25 25 25 26 27 28 29 29 30 31 32 32 32 32 32 33
18 17 17 17 17 18 18 18 18 18 18 18 18 18 18 19 19 20 20 20 20 20 20 20 20 21 21 20 20 20 21 22 23 24 25 26 26 27 27 26 25 25 25 25 25 24 24 24 24 24 24 25 24 24 23 22 22 22 21 22 22 22 21 21 22 23 23 24 25 25 25 26 26 26 27 28 28 29 29 29 29 30 31 32 32 33
18 17 17 18 18 18 17 17 17 18 18 18 18 18 19 19 20 20 20 20 20 20 20 20 20 20 20 20 20 20 20 20 21 23 24 25 26 27 27 26 25 25 25 25 25 25 25 24 24 24 25 25 25 24 24 23 22 22 22 23 23 23 22 23 23 23 23 24 24 25 25 26 27 27 27 27 27 28 28 29 29 29 30 31 32 33
18 18 18 18 18 17 18 18 18 18 18 18 18 19 19 19 20 20 20 20 20 20 20 20 20 20 20 20 20 20 20 20 20 21 21 23 24 25 25 25 25 25 25 25 25 25 25 25 25 25 25 25 25 24 24 23 22 22 22 22 22 22 22 23 23 23 24 24 24 25 25 27 27 27 26 26 26 27 28 29 29 30 30 31 32 33
18 18 18 17 17 17 17 17 17 17 18 18 18 18 19 19 19 20 20 20 20 20 20 20 20 20 20 20 20 20 20 20 20 20 21 22 22 23 24 25 25 25 25 25 25 26 26 26 27 26 26 25 24 24 23 23 22 22 22 22 22 22 22 22 23 23 24 24 25 25 26 27 27 26 26 25 25 26 27 28 29 30 31 32 33 33
18 18 18 17 17 17 17 17 17 17 17 17 18 18 19 19 19 20 19 20 20 20 20 20 20 19 19 20 20 20 20 20 20 20 21 21 22 23 24 24 24 25 25 26 26 26 26 27 27 27 27 25 25 24 23 23 22 22 22 22 22 22 22 23 23 24 25 25 26 27 27 27 26 26 26 26 25 25 26 27 28 29 31 32 33 34
18 18 18 17 17 17 17 17 17 17 17 17 18 18 18 19 20 20 19 19 19 20 20 19 19 19 19 20 20 20 20 21 21 21 21 21 22 23 23 24 24 25 25 25 25 25 25 27 27 27 27 26 25 24 23 23 23 23 22 22 22 23 23 23 23 24 24 25 26 27 28 27 26 26 26 26 25 25 25 26 27 29 29 31 33 34
18 18 18 17 17 17 17 17 17 17 18 18 18 18 18 19 19 19 19 19 19 20 20 20 20 20 19 20 20 20 20 20 20 21 21 21 22 22 23 23 24 24 24 24 24 24 24 25 25 26 27 26 26 25 24 23 23 23 22 22 22 22 22 22 22 23 24 24 25 27 27 27 27 27 27 26 26 26 26 26 27 27 29 30 32 33
18 17 17 17 17 17 17 17 18 18 18 18 18 18 18 18 19 19 19 19 19 19 20 20 20 20 20 20 20 20 21 21 21 21 21 22 22 23 23 23 23 23 23 23 23 23 22 22 22 22 23 25 25 25 23 23 22 22 21 21 21 22 22 22 22 23 24 25 25 25 26 26 26 26 26 27 26 26 26 25 26 26 28 29 31 32